Stations météo

réclame
Mon MeteoGroup
Logan Botanic Garden, Grande-Bretagne (99193): Température de l'air & dewpoint: 07.11.2018 07:00:00 - 13.11.2018 07:00:00 (GMT)Logan Botanic Garden, Grande-Bretagne (99193): Température de l'air -20cm: 07.11.2018 07:00:00 - 13.11.2018 07:00:00 (GMT)Logan Botanic Garden, Grande-Bretagne (99193): Quantités de précipitations: 07.11.2018 07:00:00 - 13.11.2018 07:00:00 (GMT)
Date & Time tt [°C] td [°C] tt -20cm [°C] rr [mm]
13.11.2018 07:00:00 8,6 6,6 - 0,0
13.11.2018 06:00:00 9,3 6,8 - 0,0
13.11.2018 05:00:00 9,7 7,4 - 0,0
13.11.2018 04:00:00 9,4 7,4 - 0,0
13.11.2018 03:00:00 9,7 7,4 - 0,0
13.11.2018 02:00:00 9,7 7,5 - 0,0
13.11.2018 01:00:00 9,7 7,5 - 0,0
13.11.2018 00:00:00 9,7 7,7 - 0,0
12.11.2018 23:00:00 9,8 7,7 - 0,0
12.11.2018 22:00:00 10,2 7,6 - 0,0
12.11.2018 21:00:00 10,4 7,7 - 0,4
12.11.2018 20:00:00 9,9 8,0 - 2,6
12.11.2018 19:00:00 11,0 8,1 - 0,0
12.11.2018 18:00:00 11,2 7,1 - 0,0
12.11.2018 17:00:00 11,2 8,1 - 0,0
12.11.2018 16:00:00 11,2 7,9 - 0,0
12.11.2018 15:00:00 11,6 8,2 - 0,0
12.11.2018 14:00:00 11,7 8,4 - 0,0
12.11.2018 13:00:00 11,5 8,2 - 0,0
12.11.2018 12:00:00 11,6 7,8 - 0,0
12.11.2018 11:00:00 11,6 8,1 - 0,0
12.11.2018 10:00:00 11,6 8,1 - 0,0
12.11.2018 09:00:00 11,3 8,2 9,7 0,0
12.11.2018 08:00:00 11,3 8,5 - 0,0
12.11.2018 07:00:00 11,2 8,8 - 0,0
12.11.2018 06:00:00 11,4 8,7 - 0,0
12.11.2018 05:00:00 11,3 8,6 - 0,0
12.11.2018 04:00:00 11,4 8,4 - 0,0
12.11.2018 03:00:00 11,3 8,0 - 0,0
12.11.2018 02:00:00 11,6 8,6 - 0,0
12.11.2018 01:00:00 11,3 8,4 - 0,0
12.11.2018 00:00:00 11,5 8,2 - 0,0
11.11.2018 23:00:00 11,3 8,0 - 0,0
11.11.2018 22:00:00 11,5 8,2 - 0,0
11.11.2018 21:00:00 11,2 7,5 - 0,0
11.11.2018 20:00:00 11,4 7,5 - 0,0
11.11.2018 19:00:00 10,5 7,3 - 0,0
11.11.2018 18:00:00 9,4 6,2 - 0,0
11.11.2018 17:00:00 10,7 7,1 - 0,0
11.11.2018 16:00:00 10,2 6,4 - 0,0
11.11.2018 15:00:00 9,5 6,0 - 0,0
11.11.2018 14:00:00 10,3 6,2 - 0,0
11.11.2018 13:00:00 9,3 5,9 - 0,0
11.11.2018 12:00:00 8,5 7,6 - 0,2
11.11.2018 11:00:00 8,2 7,0 - 0,4
11.11.2018 10:00:00 8,2 7,2 - 3,0
11.11.2018 09:00:00 8,4 7,5 9,9 0,0
11.11.2018 08:00:00 9,1 7,2 - 0,0
11.11.2018 07:00:00 9,5 6,7 - 0,0
11.11.2018 06:00:00 9,4 7,4 - 2,0
11.11.2018 05:00:00 9,2 7,6 - 0,4
11.11.2018 04:00:00 8,9 6,9 - 0,4
11.11.2018 03:00:00 9,2 7,9 - 0,0
11.11.2018 02:00:00 9,0 7,4 - 2,8
11.11.2018 01:00:00 9,0 7,3 - 0,2
11.11.2018 00:00:00 8,5 7,4 - 1,8
10.11.2018 23:00:00 8,0 7,5 - 0,0
10.11.2018 22:00:00 7,0 6,9 - 0,4
10.11.2018 21:00:00 5,7 5,6 - 0,0
10.11.2018 20:00:00 5,4 5,1 - 0,0
10.11.2018 19:00:00 5,8 5,2 - 0,0
10.11.2018 18:00:00 6,9 6,2 - 0,0
10.11.2018 17:00:00 7,3 6,3 - 0,4
10.11.2018 16:00:00 7,6 6,5 - 0,8
10.11.2018 15:00:00 7,5 6,1 - 2,8
10.11.2018 14:00:00 8,1 6,8 - 1,6
10.11.2018 13:00:00 9,9 6,2 - 0,0
10.11.2018 12:00:00 10,3 7,1 - 0,0
10.11.2018 11:00:00 10,2 6,6 - 0,0
10.11.2018 10:00:00 10,6 6,8 - 0,0
10.11.2018 09:00:00 9,8 6,5 10,0 0,0
10.11.2018 08:00:00 9,3 6,9 - 0,0
10.11.2018 07:00:00 9,4 7,0 - 0,0
10.11.2018 06:00:00 9,5 6,3 - 0,0
10.11.2018 05:00:00 9,7 6,5 - 0,0
10.11.2018 04:00:00 9,8 6,3 - 0,0
10.11.2018 03:00:00 10,3 6,6 - 0,0
10.11.2018 02:00:00 10,9 6,5 - 0,0
10.11.2018 01:00:00 11,3 7,2 - 0,0
10.11.2018 00:00:00 11,6 8,6 - 0,0
09.11.2018 23:00:00 11,5 9,1 - 0,0
09.11.2018 22:00:00 11,9 10,4 - 0,4
09.11.2018 21:00:00 10,9 10,5 - 1,4
09.11.2018 20:00:00 10,0 9,7 - 3,6
09.11.2018 19:00:00 10,1 9,0 - 2,6
09.11.2018 18:00:00 10,0 8,8 - 4,2
09.11.2018 17:00:00 10,8 9,2 - 1,2
09.11.2018 16:00:00 11,2 9,1 - 0,0
09.11.2018 15:00:00 10,9 7,3 - 0,2
09.11.2018 14:00:00 10,4 9,6 - 2,0
09.11.2018 13:00:00 10,4 9,3 - 0,2
09.11.2018 12:00:00 10,8 9,1 - 0,2
09.11.2018 11:00:00 10,7 9,0 - 0,0
09.11.2018 10:00:00 10,8 9,0 - 0,0
09.11.2018 09:00:00 10,6 9,0 9,7 0,0
09.11.2018 08:00:00 10,6 8,5 - 0,2
09.11.2018 07:00:00 10,2 9,3 - 1,6
09.11.2018 06:00:00 10,7 9,1 - 0,0
09.11.2018 05:00:00 10,6 9,2 - 0,0
09.11.2018 04:00:00 10,5 9,2 - 4,4
09.11.2018 03:00:00 9,8 8,5 - 8,2
09.11.2018 02:00:00 9,8 9,0 - 3,0
09.11.2018 01:00:00 9,9 8,7 - 2,8
09.11.2018 00:00:00 9,9 8,3 - 2,6
08.11.2018 23:00:00 10,0 9,1 - 3,8
08.11.2018 22:00:00 10,1 8,6 - 1,0
08.11.2018 21:00:00 10,5 8,5 - 1,2
08.11.2018 20:00:00 10,6 8,9 - 0,0
08.11.2018 19:00:00 10,4 9,1 - 0,8
08.11.2018 18:00:00 9,3 8,3 - -
08.11.2018 17:00:00 8,5 7,9 - 3,4
08.11.2018 16:00:00 8,2 6,7 - 1,2
08.11.2018 15:00:00 9,4 6,4 - 0,0
08.11.2018 14:00:00 9,0 7,0 - 1,4
08.11.2018 13:00:00 11,2 8,2 - 0,0
08.11.2018 12:00:00 11,4 5,8 - -
08.11.2018 11:00:00 11,1 6,3 - 0,0
08.11.2018 10:00:00 10,7 4,7 - 0,0
08.11.2018 09:00:00 10,0 5,1 10,7 0,0
08.11.2018 08:00:00 10,0 5,2 - 0,2
08.11.2018 07:00:00 9,5 5,8 - 0,0
08.11.2018 06:00:00 8,8 6,6 - 0,6
08.11.2018 05:00:00 7,7 6,4 - 1,4
08.11.2018 04:00:00 8,5 3,1 - 0,0
08.11.2018 03:00:00 7,0 2,2 - 0,0
08.11.2018 02:00:00 8,3 3,4 - 0,0
08.11.2018 01:00:00 6,3 3,0 - 0,0
08.11.2018 00:00:00 7,6 4,2 - 0,0
07.11.2018 23:00:00 7,4 5,0 - 0,0
07.11.2018 22:00:00 8,1 6,1 - 0,0
07.11.2018 21:00:00 8,4 6,4 - 0,0
07.11.2018 20:00:00 8,6 6,2 - 0,4
07.11.2018 19:00:00 9,9 7,2 - 0,0
07.11.2018 18:00:00 9,8 8,1 - 0,0
07.11.2018 17:00:00 10,3 7,3 - 0,0
07.11.2018 16:00:00 9,6 6,3 - 0,0
07.11.2018 15:00:00 9,6 6,6 - 0,0
07.11.2018 14:00:00 9,9 7,6 - 0,0
07.11.2018 13:00:00 9,8 7,8 - 0,0
07.11.2018 12:00:00 11,6 10,0 - 0,2
07.11.2018 11:00:00 12,4 11,2 - 0,2
07.11.2018 10:00:00 12,3 11,2 - 0,0
07.11.2018 09:00:00 12,0 11,2 10,7 0,0
07.11.2018 08:00:00 12,0 11,2 - 0,6
07.11.2018 07:00:00 11,9 11,2 - 0,4

tt = Température de l'air
td = dewpoint
tt -20cm = Température de l'air -20cm
rr = Quantités de précipitations

stations d'obs. à proximité